#timestamp,LO_Frequency,Hit,StdDev 
1591254015.8,286046999.5,N
1591254035.6,286046998.3,N
1591254055.5,286046999.3,N
1591254075.3,286046998.1,N
1591254095.1,286047001.0,N
1591254115.9,286046998.6,N
1591254135.7,286047000.2,N
1591254155.6,286046999.0,N
1591254175.4,286046999.4,N
1591254195.2,286046998.2,N
1591254215.1,286046999.8,N
1591254216.0,286046999.8,N
1591254235.8,286047000.2,N
1591254255.6,286047002.3,N
1591254275.5,286047000.9,N
1591254295.3,286047000.4,N
1591254315.2,286047000.6,N
1591254335.9,286047001.6,N
1591254355.7,286047002.3,N
1591254375.6,286047000.7,N
1591254395.4,286046998.8,N
1591254415.3,286047001.2,N
1591254435.1,286046998.2,N
1591254436.0,286046998.2,N
1591254455.8,286046999.2,N
1591254475.7,286046996.6,N
1591254495.5,286046999.2,N
1591254515.3,286046996.6,N
1591254535.2,286046998.1,N
1591254555.0,286046999.2,N
1591254555.9,286046999.2,N
1591254575.8,286046996.6,N
1591254595.6,286046999.4,N
1591254615.4,286047000.6,N
1591254635.3,286047000.2,N
1591254655.1,286047002.0,N
1591254675.9,286046999.8,N
1591254695.7,286046998.3,N
1591254715.5,286047000.6,N
1591254735.4,286047000.8,N
1591254785.2,286046999.8,E
1591254795.2,286047001.5,N
1591254815.0,286047002.6,P
1591254815.9,286047002.6,P
1591254835.7,286047000.0,N
1591254855.6,286047000.0,N
1591254875.4,286046999.9,N
1591254895.3,286047000.8,N
1591254915.1,286046999.0,N
1591254935.8,286046996.9,N
1591254955.7,286046996.7,N
1591254975.5,286046998.7,N
1591254995.4,286046999.2,N
1591255015.2,286046996.5,N
1591255035.0,286046999.5,N
1591255035.9,286046999.5,N
1591255055.8,286046998.2,N
1591255075.6,286046999.7,N
1591255095.5,286046999.1,N
1591255115.3,286047000.7,N
1591255135.1,286046999.2,N
1591255155.9,286047000.7,N
1591255175.7,286047001.0,N
1591255195.5,286046998.3,N
1591255215.4,286046999.9,N
1591255235.2,286046999.7,N
1591255255.1,286047002.4,N
1591255256.0,286047002.4,N
1591255275.8,286047002.2,N
1591255295.6,286047000.1,N
1591255315.5,286047003.8,N
1591255335.3,286047001.7,N
1591255355.2,286046999.8,N
1591255375.9,286047000.3,N
1591255395.7,286047000.9,N
1591255415.6,286047000.2,N
1591255435.4,286046999.9,N
1591255455.2,286046999.9,N
1591255475.1,286046996.5,N
1591255476.0,286046996.5,N
1591255495.8,286046996.7,N
1591255515.7,286047000.9,N
1591255535.5,286046999.9,N
1591255555.3,286047000.5,N
1591255575.2,286047000.0,N
1591255595.0,286046999.1,N
1591255595.9,286046999.1,N
1591255615.8,286046999.4,N
1591255635.6,286047001.0,N
1591255655.4,286047000.1,N
1591255675.3,286046998.4,N
1591255695.1,286046998.3,N
1591255715.9,286047001.0,N
1591255735.7,286047000.9,N
1591255755.5,286046998.7,N
1591255775.4,286047000.7,N
1591255795.2,286047002.5,N
1591255815.0,286047002.5,N
1591255816.0,286047002.5,N
1591255835.8,286047000.4,N
1591255855.6,286047002.6,N
1591255875.5,286047001.4,N
1591255895.3,286047002.6,N
1591255915.1,286047001.8,N
1591255935.9,286047003.9,N
1591255955.7,286047002.0,N
1591255975.6,286047004.2,N
1591255995.4,286047004.0,N
1591256015.2,286047001.4,N
1591256035.1,286047001.5,N
1591256036.0,286047001.5,N
1591256055.8,286047002.4,N
1591256075.6,286047002.8,N
1591256095.5,286047000.4,N
1591256115.3,286047001.8,N
1591256135.2,286047004.2,N
1591256155.9,286047002.6,N
1591256175.7,286047001.9,N
1591256195.6,286047002.3,N
1591256215.4,286047002.0,N
1591256235.3,286047002.6,N
1591256255.1,286046998.1,N
1591256256.0,286046998.1,N
1591256275.8,286046998.1,N
1591256295.7,286046999.9,N
1591256315.5,286047002.8,N
1591256335.4,286047002.2,N
1591256355.2,286047002.2,N
1591256375.0,286047001.9,N
1591256375.9,286047001.9,N
1591256395.8,286047002.5,N
1591256415.6,286047001.7,N
1591256435.4,286047002.6,N
1591256455.3,286047002.0,N
1591256475.1,286047002.8,N
1591256495.9,286046998.3,N
1591256515.7,286046998.2,N
1591256535.5,286047000.5,N
1591256555.4,286047000.5,N
1591256575.2,286046998.2,N
1591256595.1,286047001.0,N
1591256596.0,286047001.0,N
1591256615.8,286047000.7,N
1591256635.6,286046998.5,N
1591256655.5,286046999.6,N
1591256675.3,286046999.6,N
1591256695.1,286046996.7,N
1591256715.9,286046997.5,N
1591256735.7,286046997.8,N
1591256755.6,286046995.2,N
1591256775.4,286046995.9,N
1591256795.2,286046994.6,N
1591256815.1,286046992.3,Y
1591256816.0,286046992.3,P
1591256835.8,286046990.3,N
1591256855.7,286046993.0,N
1591256875.5,286046992.2,N
1591256895.3,286046990.5,N
1591256915.2,286046992.7,N
1591256935.0,286046993.0,N
1591256935.9,286046993.0,N
1591256955.8,286046990.9,Y
1591256975.6,286046999.5,P
1591256995.4,286046996.6,N
1591257015.3,286046997.7,N
1591257035.1,286046997.2,N
1591257055.8,286046996.9,N
1591257075.7,286046999.5,N
1591257095.5,286046999.6,N
1591257115.4,286046998.8,N
1591257135.2,286046998.9,N
1591257155.0,286046998.9,N
1591257155.9,286046998.9,N
1591257175.8,286046999.6,N
1591257195.6,286046997.2,N
1591257215.5,286046995.4,N
1591257235.3,286046997.6,N
1591257255.1,286046997.6,N
1591257275.9,286046997.1,N
1591257295.7,286046998.4,N
1591257315.5,286046997.8,N
1591257335.4,286046995.2,Y
1591257355.2,286046999.4,P
1591257375.1,286046999.3,N
1591257376.0,286046999.3,N
1591257395.8,286046998.6,N
1591257415.6,286046999.7,N
1591257435.5,286046999.9,N
1591257455.3,286047004.3,Y
1591257475.2,286047003.6,P
1591257495.9,286047002.1,N
1591257515.7,286047002.7,N
1591257535.6,286047000.5,N
1591257555.4,286047000.3,N
1591257575.3,286047004.0,N
1591257595.1,286047004.0,N
1591257596.0,286047004.0,N
